User: anonymous   Login
Location: Sternwarte ZA, Rosenfeld-Brittheim
(48.2889°N, 8.6789°E)
Time: 14:43:27
(UTC+02:00)
Language:

ISS - Orbit

View from above orbital plane
View from above orbital plane
View from above satellite
View from above satellite

Ground track
Ground track

The orbit data is extracted from the following two-line orbital elements,

1 25544U 98067A   18264.79497072  .00016717  00000-0  10270-3 0  9036
2 25544  51.6391 257.2776 0004020 192.2048 167.9008 15.53711304 13538
Epoch (UTC): 21 September 2018 19:04:45
Eccentricity: 0.0004020
inclination: 51.6391°
perigee height: 403 km
apogee height: 408 km
right ascension of ascending node: 257.2776°
argument of perigee: 192.2048°
revolutions per day: 15.53711304
mean anomaly at epoch: 167.9008°
orbit number at epoch: 1353

The dashed part of the orbit path shows where the satellite is in the earth's shadow,  

DLR